Temperature
21 21 21 21 21 21 21 21 21 21 21 21 21 20 20 20 20 20 20 20 20 20 20 20 20 20 20 20 20 19 19 19 19 19 19 19 18 18 18 18 18 18 18
22 22 21 21 21 21 21 21 21 21 21 21 21 21 20 20 20 20 20 20 20 20 20 20 20 20 20 20 20 20 20 20 19 19 19 19 18 18 18 18 18 18 18
23 22 21 22 21 21 21 21 21 21 21 21 21 21 21 21 21 20 20 20 20 20 20 20 20 20 20 20 20 20 20 20 19 19 19 19 19 19 19 19 18 18 18
23 22 22 22 21 21 21 21 21 21 21 21 21 21 21 21 21 21 21 21 20 20 20 20 20 20 20 20 20 20 20 20 19 19 19 19 18 18 19 19 19 18 18
23 23 22 22 21 21 21 21 21 21 21 21 21 21 21 21 21 21 21 20 20 20 20 20 20 20 20 20 20 20 20 19 19 19 19 18 18 18 18 19 19 19 19
23 23 22 22 22 21 21 21 21 21 21 21 21 21 21 21 20 20 20 20 20 20 20 20 20 20 20 20 20 20 20 19 19 19 19 18 18 18 18 18 19 19 19
24 23 22 22 22 22 21 21 21 21 21 21 21 21 21 20 20 20 20 20 20 20 20 20 20 20 20 20 20 20 20 19 19 19 18 18 18 18 18 18 18 18 19
24 23 23 22 22 22 22 21 21 21 21 21 21 21 20 20 20 20 20 20 20 20 20 20 20 20 20 19 19 19 19 19 19 19 18 18 18 18 17 18 18 18 18
24 24 23 23 22 22 22 21 21 21 21 21 21 21 20 20 20 20 20 20 19 19 19 19 19 19 19 19 19 19 19 19 19 19 19 18 18 18 17 18 18 18 18
24 24 24 23 23 22 22 22 21 21 21 21 21 21 20 20 20 20 20 19 19 19 19 19 19 19 19 19 19 19 19 19 19 19 19 19 18 18 17 17 17 18 18
24 24 24 23 23 22 22 22 21 21 21 21 20 20 20 20 20 20 19 19 19 19 19 19 19 19 19 19 19 19 19 19 19 19 19 19 18 18 18 17 17 17 18
24 24 24 23 23 22 22 21 21 21 21 20 20 20 20 20 20 19 19 19 19 19 19 19 19 19 18 19 19 19 19 19 19 19 19 19 19 18 18 18 18 18 18
24 24 23 23 23 22 22 21 21 21 21 20 20 20 20 19 19 19 19 19 18 18 18 18 18 18 18 18 18 18 18 18 18 19 19 19 18 18 18 18 18 18 18
24 24 23 23 23 22 22 21 21 21 20 20 20 20 19 19 19 19 19 18 18 18 18 18 18 18 18 18 18 18 18 18 18 18 18 19 18 18 18 18 18 18 18
23 23 23 23 22 22 21 21 21 20 20 20 20 20 19 19 19 19 18 18 18 18 18 18 18 18 18 18 18 18 18 18 18 18 18 18 18 18 18 18 18 18 18
23 23 23 22 22 21 21 21 20 20 20 20 20 19 19 19 19 18 18 18 18 18 18 18 18 17 17 17 17 17 17 17 17 17 18 18 18 18 18 18 18 18 18
23 23 22 22 21 21 21 20 20 20 20 20 19 19 19 19 19 19 18 18 18 18 18 17 17 17 17 17 17 17 17 17 17 17 17 18 18 18 18 18 18 18 18
22 22 22 21 21 20 20 20 20 20 20 20 19 19 19 19 19 19 18 18 18 18 17 17 17 17 17 17 17 17 17 17 17 18 17 18 18 18 18 18 18 18 18
22 22 21 21 21 20 20 20 20 20 19 19 19 19 19 19 19 19 18 18 18 17 17 17 17 17 17 17 17 17 17 17 17 17 17 17 18 18 18 18 18 18 18
20 20 20 19 20 19 19 19 19 19 19 19 19 19 19 19 19 19 18 18 18 17 17 17 17 17 17 17 17 17 17 17 17 17 18 17 17 17 17 17 17 17 17
20 19 19 19 19 18 18 18 19 19 19 19 19 19 19 19 19 19 18 18 18 18 17 17 17 17 16 16 16 17 17 17 17 17 17 17 17 17 17 17 17 17 17
19 19 19 19 18 18 18 18 18 18 19 19 19 19 19 19 19 19 18 18 18 18 17 17 17 17 16 16 16 15 16 16 17 17 17 17 17 17 17 17 17 17 17
19 18 18 18 18 18 18 18 18 18 18 18 18 19 19 18 18 18 18 18 18 18 17 17 17 17 16 16 15 15 14 14 15 16 16 17 17 17 17 17 17 17 17
18 18 18 17 17 18 18 18 18 18 18 18 18 18 18 18 18 18 18 18 18 18 17 17 17 17 16 16 16 15 14 14 14 14 15 16 16 16 17 17 17 17 17
17 17 16 16 17 17 17 17 17 18 18 18 18 18 17 17 17 17 17 17 17 17 17 17 17 17 16 16 16 15 15 14 14 13 14 15 16 16 16 16 16 17 17
16 16 16 16 16 16 16 16 17 17 17 17 17 17 17 17 17 17 16 17 17 17 17 17 17 17 16 16 16 15 15 14 14 13 13 14 15 16 16 16 16 16 17
Wind_Speed
12 16 23 23 22 21 20 19 19 18 18 18 18 18 18 18 18 18 18 17 16 15 14 14 14 14 14 14 14 15 15 15 15 15 15 15 14 13 13 15 15 14 16
17 20 24 24 23 22 20 19 19 18 18 18 18 17 17 17 17 16 16 16 15 14 13 13 13 13 13 13 13 13 13 13 13 14 14 13 12 11 11 14 14 13 15
20 19 23 24 23 22 21 20 19 19 18 17 17 16 16 16 15 15 15 14 14 13 12 12 12 12 11 11 11 11 11 11 11 11 11 10 11 11 13 15 15 14 14
20 19 22 25 24 23 21 20 19 19 18 17 17 16 15 15 15 14 14 13 13 12 12 11 11 11 10 10 9 9 9 9 9 9 8 9 9 12 14 15 15 14 13
16 18 22 26 24 23 21 20 19 18 18 17 17 16 15 15 14 14 13 13 12 12 11 11 10 10 9 9 8 8 8 8 8 7 6 8 10 13 14 15 15 14 13
14 16 23 25 24 23 22 21 19 19 18 17 16 16 15 14 14 13 13 12 12 11 11 10 10 10 10 9 9 8 8 8 7 6 6 8 11 15 16 16 16 15 14
15 15 22 25 24 23 22 21 20 19 18 17 17 16 15 14 14 13 12 12 12 11 11 11 11 11 11 10 10 10 9 9 8 7 7 8 12 18 19 18 18 17 16
19 15 20 24 24 23 22 21 20 19 18 18 17 16 16 15 14 13 13 13 12 12 12 12 12 12 12 12 12 11 11 11 9 8 8 9 14 19 21 20 19 19 18
17 15 14 19 21 23 22 21 20 19 19 18 18 17 16 15 15 14 14 14 14 14 14 14 14 14 14 14 14 14 13 13 12 10 9 8 12 20 23 22 21 21 20
15 14 12 14 16 17 19 21 21 20 19 19 18 17 17 16 16 15 15 15 16 16 16 16 16 16 16 16 16 16 15 14 13 13 12 12 12 17 23 24 23 22 21
14 12 12 12 12 15 15 19 19 20 19 19 17 18 17 14 14 14 15 17 18 18 19 18 18 18 17 17 18 17 16 13 12 12 13 15 16 17 22 25 24 23 22
17 15 14 14 13 12 14 14 14 15 15 16 14 15 14 13 13 14 15 18 20 20 20 20 20 19 17 14 16 17 14 14 13 13 15 18 19 19 22 25 25 24 22
19 18 16 15 13 12 9 9 10 11 11 13 14 15 13 11 11 11 10 12 15 17 15 15 16 14 12 11 11 12 13 13 13 14 15 18 19 21 22 25 27 25 23
18 18 17 16 14 13 9 8 8 7 7 8 13 15 11 6 5 5 5 6 6 7 7 8 7 9 11 13 12 10 11 11 12 13 15 19 20 20 22 24 27 26 24
16 16 16 15 14 14 11 9 9 8 7 10 11 14 13 6 6 4 3 3 3 4 4 4 4 6 7 7 9 9 9 11 13 14 14 19 19 19 19 21 24 24 23
14 14 14 13 12 11 10 9 7 7 7 8 9 12 13 8 5 4 3 2 2 3 4 4 4 5 5 5 7 7 7 9 10 12 13 14 17 17 19 21 23 24 23
10 11 11 12 10 9 8 8 6 5 5 5 5 10 11 9 6 4 3 1 1 2 2 1 2 2 3 3 5 6 6 6 7 8 10 11 13 15 18 21 23 23 23
3 5 7 8 6 5 5 5 4 3 4 4 5 7 9 9 8 4 3 2 1 0 0 1 1 2 2 3 3 4 5 5 6 7 8 10 11 12 16 22 25 25 25
4 2 3 2 4 5 4 3 2 2 3 3 4 4 6 8 8 4 3 2 2 1 1 1 0 1 2 3 4 5 5 5 6 7 7 8 10 12 14 18 24 25 24
9 8 4 3 2 0 2 2 2 1 1 2 3 4 6 6 7 5 3 3 3 2 1 1 1 1 2 3 4 5 5 6 6 7 8 7 8 11 13 14 15 18 23
11 8 6 6 5 4 1 1 1 1 1 2 3 4 6 6 6 4 4 3 3 2 1 0 0 1 2 2 2 4 5 5 5 5 5 5 6 7 9 11 12 13 14
8 6 4 2 4 4 2 1 1 1 1 2 3 4 6 6 6 5 5 4 4 2 1 1 1 0 1 1 1 2 4 5 4 3 3 3 4 4 6 8 10 11 13
5 4 2 2 1 4 3 1 1 2 1 1 1 2 3 5 6 6 7 6 5 3 2 1 2 2 1 1 0 1 1 2 4 4 3 3 3 4 5 5 7 10 13
7 6 5 3 2 2 1 1 0 1 1 2 2 2 2 4 4 5 6 7 6 4 4 3 3 2 2 2 2 1 3 3 2 4 4 3 4 5 5 5 5 6 9
10 9 8 8 8 7 6 4 2 2 1 1 0 1 1 2 3 4 5 6 6 5 5 4 3 3 3 3 3 2 2 3 4 4 5 4 4 4 4 5 4 4 5
10 9 9 9 9 9 9 8 6 5 4 3 3 1 1 2 2 2 3 4 5 4 5 5 5 5 4 4 4 4 3 3 3 3 4 5 5 5 5 4 4 4 3
Wind_Direction
158 161 155 150 148 146 142 139 136 132 130 127 125 122 120 119 120 121 123 124 125 125 125 123 122 121 120 120 120 120 121 121 122 123 123 122 121 120 124 127 120 118 118
155 158 154 151 149 149 146 144 141 139 137 135 132 128 126 125 125 126 126 127 129 128 129 129 129 127 127 127 128 128 128 129 130 130 128 127 124 120 129 137 126 129 125
149 154 153 150 150 150 149 148 147 145 143 141 139 136 134 133 133 133 133 133 134 134 135 135 137 136 136 136 137 137 136 137 138 138 136 135 134 127 125 135 134 134 132
148 151 153 151 152 152 152 152 152 150 148 147 146 144 142 142 142 141 141 141 142 143 145 146 146 148 148 149 150 151 151 153 155 156 156 161 159 148 141 141 142 142 141
145 150 154 153 154 155 156 156 156 155 154 153 152 151 151 150 150 150 150 151 152 153 156 158 159 161 164 167 169 172 174 176 181 187 191 191 184 169 162 156 154 154 153
145 151 156 155 157 158 159 160 161 160 159 159 159 159 159 159 160 160 162 163 164 166 169 171 174 177 180 185 190 195 201 203 206 215 228 217 197 185 178 171 166 165 165
148 154 158 158 160 162 163 165 165 165 165 165 166 167 169 170 171 173 175 177 179 182 184 187 190 193 196 201 207 213 220 226 228 233 234 222 202 193 188 182 176 174 175
153 156 161 162 164 165 167 169 170 171 172 173 174 176 179 181 184 186 188 191 194 197 200 202 205 206 208 213 218 224 231 239 246 242 236 221 212 201 195 190 185 183 183
156 159 162 166 168 170 172 174 175 177 179 181 183 185 189 192 195 198 201 204 207 210 212 214 216 217 219 220 223 229 235 242 251 261 262 248 225 210 203 198 193 190 190
159 165 165 167 169 172 177 180 182 184 187 189 191 194 197 201 205 209 213 216 219 221 222 223 224 226 226 227 229 232 237 243 246 252 259 262 251 223 212 205 200 198 197
165 172 171 171 172 175 179 187 188 191 195 196 199 202 204 209 213 218 224 226 228 229 229 229 229 230 232 233 234 236 239 239 237 244 250 254 254 239 223 214 208 205 203
174 180 180 178 178 177 185 189 191 196 200 201 203 208 209 211 217 224 232 235 235 236 235 233 232 232 234 235 237 238 236 236 236 243 246 249 252 248 235 223 215 211 209
178 181 184 183 181 181 189 183 191 200 201 205 208 211 213 216 222 230 236 244 242 240 237 238 235 231 229 229 230 230 231 234 237 241 245 248 252 254 246 231 221 216 214
179 184 183 183 183 189 191 186 189 196 200 205 212 213 210 213 217 221 225 231 228 227 224 228 227 228 229 231 230 232 234 233 235 235 241 248 252 258 254 240 227 221 218
182 185 184 183 185 189 190 189 191 198 201 202 206 211 207 207 211 210 211 213 212 212 215 223 226 233 234 235 236 236 237 237 235 233 238 245 246 249 250 242 232 227 224
184 183 180 181 184 184 185 185 187 194 196 196 199 201 198 196 188 188 190 188 204 208 213 218 228 233 238 237 239 238 236 237 237 233 234 243 248 244 235 232 235 232 229
185 176 178 180 179 177 181 181 176 179 175 180 183 181 176 176 175 168 163 177 220 220 223 239 260 255 255 250 249 248 244 233 234 235 234 234 239 235 230 229 231 234 235
127 153 173 181 178 185 186 179 166 153 155 171 170 164 166 168 161 146 145 165 197 160 357 301 286 298 286 277 267 262 254 247 245 240 235 233 229 230 230 233 233 234 236
76 109 150 164 183 198 202 172 129 123 143 152 150 147 155 154 145 136 138 144 120 85 39 338 333 253 279 288 277 264 256 252 252 254 244 234 228 222 224 232 235 236 237
51 39 32 30 346 215 143 98 81 105 134 144 137 141 134 137 138 130 128 127 110 96 54 11 305 285 261 277 291 290 269 257 250 248 250 245 233 229 227 230 234 238 240
69 66 46 41 31 21 37 146 162 190 187 156 149 154 145 145 144 137 135 126 121 122 136 336 335 334 308 325 343 318 300 278 266 259 256 254 245 239 234 230 230 233 239
84 95 99 79 74 57 329 286 225 221 211 187 165 167 159 158 164 159 156 154 150 136 90 62 81 43 307 11 37 333 333 335 333 303 285 266 265 255 248 243 233 229 232
73 87 86 76 144 164 187 267 31 51 32 52 153 186 190 176 178 173 172 166 169 158 168 200 158 140 246 308 183 190 279 294 312 311 308 297 296 279 265 256 238 234 230
47 59 63 56 36 38 79 90 134 155 190 217 204 197 203 201 198 190 181 177 176 171 179 194 177 180 177 258 296 218 211 216 253 303 311 310 314 297 285 276 255 240 231
51 57 53 42 30 18 23 40 54 50 28 342 60 119 233 253 239 209 188 180 182 182 185 192 199 207 199 212 225 242 250 242 222 231 282 306 315 298 292 276 261 246 227
56 56 53 47 33 24 27 31 41 46 35 33 24 14 320 299 294 269 203 186 187 191 197 205 213 220 223 226 229 224 224 235 234 230 257 283 293 290 290 276 263 247 217
Height
1515 1519 1522 1525 1526 1527 1528 1530 1531 1532 1533 1534 1535 1537 1538 1539 1540 1541 1542 1543 1544 1544 1545 1546 1546 1547 1547 1548 1548 1549 1549 1549 1550 1550 1551 1551 1551 1552 1552 1552 1552 1553 1554
1512 1517 1521 1524 1526 1527 1528 1530 1531 1532 1533 1535 1536 1537 1538 1539 1540 1542 1543 1543 1544 1545 1546 1547 1547 1548 1548 1549 1549 1550 1550 1551 1551 1552 1552 1553 1553 1553 1554 1554 1554 1554 1555
1512 1516 1520 1523 1525 1527 1528 1530 1531 1532 1534 1535 1536 1537 1539 1540 1541 1542 1543 1544 1545 1545 1546 1547 1548 1548 1549 1550 1550 1551 1551 1552 1552 1553 1553 1554 1554 1555 1555 1555 1555 1555 1556
1512 1515 1519 1522 1525 1527 1528 1530 1531 1532 1534 1535 1536 1538 1539 1540 1541 1542 1543 1544 1545 1545 1546 1547 1548 1549 1550 1550 1551 1551 1552 1552 1553 1553 1554 1554 1555 1555 1556 1556 1556 1556 1557
1512 1515 1519 1522 1524 1526 1528 1529 1531 1532 1533 1535 1536 1537 1539 1540 1541 1542 1543 1544 1544 1545 1546 1547 1548 1549 1549 1550 1551 1551 1552 1552 1553 1553 1554 1554 1555 1556 1556 1557 1557 1557 1557
1512 1515 1518 1521 1523 1525 1527 1528 1530 1532 1533 1534 1536 1537 1538 1539 1540 1541 1542 1543 1544 1544 1545 1546 1547 1547 1548 1549 1550 1551 1551 1552 1552 1553 1553 1554 1554 1555 1556 1557 1557 1558 1558
1511 1515 1517 1520 1522 1524 1526 1527 1529 1531 1532 1534 1535 1536 1537 1538 1539 1540 1541 1542 1543 1543 1544 1544 1545 1546 1547 1547 1548 1549 1550 1551 1551 1552 1552 1553 1554 1555 1555 1556 1557 1557 1558
1511 1513 1516 1519 1521 1523 1525 1526 1528 1530 1531 1533 1534 1535 1536 1538 1538 1539 1540 1540 1541 1542 1542 1543 1543 1544 1545 1545 1546 1547 1548 1549 1549 1550 1551 1551 1552 1553 1554 1555 1556 1556 1557
1512 1513 1515 1518 1520 1522 1524 1526 1527 1529 1530 1532 1533 1534 1535 1536 1537 1538 1539 1539 1539 1540 1540 1541 1541 1542 1542 1543 1544 1545 1545 1546 1547 1548 1549 1549 1550 1551 1552 1553 1554 1555 1555
1511 1513 1515 1517 1519 1521 1523 1524 1526 1528 1529 1531 1532 1533 1534 1535 1535 1536 1537 1537 1538 1538 1538 1539 1539 1540 1540 1541 1541 1542 1543 1543 1544 1545 1546 1547 1548 1548 1549 1550 1551 1552 1553
1510 1512 1513 1515 1517 1519 1521 1523 1525 1526 1528 1529 1530 1531 1532 1533 1533 1534 1535 1535 1536 1536 1536 1536 1537 1537 1537 1538 1539 1539 1540 1540 1541 1541 1542 1543 1545 1545 1546 1547 1548 1549 1550
1507 1509 1511 1513 1515 1517 1520 1521 1523 1525 1526 1528 1529 1530 1530 1531 1532 1532 1533 1533 1533 1533 1533 1534 1534 1534 1535 1535 1536 1536 1537 1538 1538 1538 1539 1540 1541 1542 1543 1544 1545 1546 1547
1504 1507 1509 1511 1513 1515 1517 1519 1521 1523 1524 1526 1527 1528 1529 1529 1530 1530 1531 1530 1531 1531 1531 1531 1531 1531 1532 1532 1533 1533 1534 1535 1535 1535 1536 1537 1538 1539 1540 1541 1542 1543 1544
1502 1504 1507 1509 1511 1514 1515 1517 1519 1521 1522 1523 1525 1525 1526 1527 1527 1528 1528 1528 1528 1528 1528 1528 1528 1528 1528 1529 1530 1530 1530 1531 1532 1533 1533 1534 1535 1536 1537 1538 1538 1539 1540
1501 1504 1506 1508 1510 1512 1514 1515 1517 1519 1520 1522 1523 1523 1524 1524 1525 1525 1525 1525 1525 1525 1525 1524 1524 1525 1525 1525 1526 1526 1526 1527 1527 1528 1529 1530 1530 1531 1531 1532 1534 1535 1536
1500 1502 1504 1506 1509 1511 1512 1513 1515 1517 1519 1520 1520 1521 1521 1522 1523 1523 1523 1522 1522 1522 1521 1521 1521 1521 1521 1521 1521 1522 1522 1522 1523 1523 1524 1525 1526 1526 1527 1527 1529 1531 1533
1499 1501 1504 1506 1507 1509 1511 1512 1513 1515 1516 1517 1518 1519 1519 1520 1520 1520 1520 1519 1519 1518 1518 1517 1517 1517 1517 1517 1516 1517 1517 1517 1518 1518 1519 1520 1521 1522 1522 1523 1524 1526 1528
1499 1501 1504 1505 1506 1507 1509 1510 1511 1513 1514 1515 1516 1516 1518 1518 1518 1518 1517 1516 1516 1515 1514 1514 1513 1513 1513 1512 1512 1512 1512 1512 1512 1513 1513 1514 1515 1516 1517 1518 1519 1521 1522
1498 1499 1500 1502 1503 1503 1504 1507 1509 1510 1511 1513 1514 1514 1515 1515 1515 1515 1514 1513 1513 1512 1511 1510 1510 1510 1509 1508 1507 1507 1507 1507 1507 1507 1508 1508 1510 1511 1512 1513 1514 1515 1517
1496 1496 1500 1500 1499 1500 1499 1504 1506 1508 1509 1510 1511 1513 1513 1513 1513 1512 1511 1511 1510 1509 1508 1507 1506 1506 1505 1504 1503 1502 1502 1502 1502 1502 1503 1503 1504 1505 1506 1507 1508 1509 1511
1493 1495 1494 1497 1496 1497 1497 1501 1504 1506 1508 1507 1508 1511 1511 1511 1511 1510 1509 1508 1508 1507 1506 1504 1503 1503 1502 1500 1499 1498 1498 1497 1497 1497 1498 1498 1499 1500 1500 1501 1502 1503 1504
1493 1493 1493 1492 1495 1496 1497 1500 1503 1505 1506 1506 1506 1508 1508 1508 1508 1507 1507 1506 1505 1505 1503 1502 1501 1499 1499 1497 1496 1495 1494 1494 1493 1494 1494 1494 1495 1495 1495 1495 1496 1497 1498
1493 1493 1493 1495 1495 1496 1497 1500 1501 1503 1504 1504 1504 1505 1505 1505 1506 1505 1504 1504 1503 1502 1501 1500 1498 1497 1495 1495 1494 1494 1493 1491 1490 1490 1491 1491 1491 1491 1491 1491 1490 1491 1492
1495 1494 1494 1494 1496 1496 1497 1499 1500 1501 1502 1502 1501 1501 1502 1503 1503 1502 1502 1501 1500 1500 1499 1498 1496 1494 1493 1492 1492 1491 1491 1490 1490 1487 1487 1488 1488 1487 1487 1486 1486 1486 1487
1497 1497 1497 1497 1497 1496 1497 1497 1498 1499 1499 1499 1498 1498 1499 1499 1499 1498 1498 1498 1497 1497 1496 1495 1494 1492 1491 1489 1488 1487 1487 1487 1486 1485 1483 1482 1483 1483 1482 1482 1482 1482 1483
1500 1500 1500 1499 1497 1497 1497 1496 1496 1496 1496 1495 1495 1495 1495 1495 1495 1494 1494 1494 1494 1493 1492 1491 1490 1489 1488 1487 1485 1484 1483 1483 1482 1481 1480 1478 1478 1478 1478 1478 1478 1478 1478